Terminal Aerodrome Forecast
Issued by NWS Aberdeen, SD

Home | Current Version | Previous Version | Text Only | Print | Product List | Glossary On
Versions: 1 2 3 4 5 6 7 8 9 10 11 12 13 14 15 16 17 18 19 20 21 22 23 24 25 26 27 28 29 30 31 32 33 34 35 36 37 38 39 40 41 42 43 44 45 46 47 48 49 50
000
FTAK31 PAFA 281346 AAA
TAFABR
TAF AMD
PABR 281346Z 2814/2912 01010KT 1/2SM FG OVC004
     FM281700 01010KT 2SM BR OVC005
     FM281800 36010KT P6SM OVC008
     FM291000 36010KT 1SM BR OVC004=

USA.gov is the U.S. government's official web portal to all federal, state and local government web resources and services.